Location: Wald
(31.7579°N, 86.6655°W)
Time: 11:48:16
(UTC+00:00)

Cosmos 2322 Rocket - Pass Details

Date: 14 July 2020
Orbit: 832 x 851 km, 71.0° (Epoch: 08 August)

Event Time Altitude Azimuth Distance (km) Brightness Sun altitude
Rises 09:35:48 0° 347° (NNW) 3,403 5.7 -14.5°
Reaches altitude 10° 09:38:22 10° 353° (N) 2,468 5.0 -14.1°
Maximum altitude 09:43:47 45° 66° (ENE) 1,133 3.4 -13.2°
Drops below altitude 10° 09:49:12 10° 139° (SE) 2,466 4.7 -12.2°
Sets 09:51:44 0° 145° (SE) 3,400 5.4 -11.8°
